Time,TemperatureF,DewpointF,PressureIn,WindDirection,WindDirectionDegrees,WindSpeedMPH,WindSpeedGustMPH,Humidity,HourlyPrecipIn,Conditions,Clouds,dailyrainin,SoftwareType,DateUTC
2013-02-24 00:00:00,35.0,35.0,30.09,NE,45,6.0,9.0,100,0.00,,,0.00,Weather View 32 v70,2013-02-24 05:00:00,
2013-02-24 00:05:00,35.0,35.0,30.09,NE,45,6.0,9.0,100,0.00,,,0.00,Weather View 32 v70,2013-02-24 05:05:00,
2013-02-24 00:10:00,35.0,35.0,30.09,NE,45,3.0,9.0,100,0.00,,,0.00,Weather View 32 v70,2013-02-24 05:10:00,
2013-02-24 00:15:00,35.0,35.0,30.09,NNE,22,6.0,9.0,100,0.00,,,0.00,Weather View 32 v70,2013-02-24 05:15:00,
2013-02-24 00:20:00,35.0,35.0,30.09,NNE,22,6.0,7.0,100,0.00,,,0.01,Weather View 32 v70,2013-02-24 05:20:00,
2013-02-24 00:25:00,35.0,35.0,30.09,NE,45,6.0,7.0,100,0.01,,,0.01,Weather View 32 v70,2013-02-24 05:25:00,
2013-02-24 00:30:00,35.0,35.0,30.08,NE,45,6.0,7.0,100,0.01,,,0.01,Weather View 32 v70,2013-02-24 05:30:00,
2013-02-24 00:35:00,35.0,35.0,30.08,NE,45,4.0,7.0,100,0.01,,,0.01,Weather View 32 v70,2013-02-24 05:35:00,
2013-02-24 00:40:00,35.0,35.0,30.08,NE,45,2.0,7.0,100,0.01,,,0.01,Weather View 32 v70,2013-02-24 05:40:00,
2013-02-24 00:45:00,35.0,35.0,30.08,NNE,22,2.0,7.0,100,0.02,,,0.02,Weather View 32 v70,2013-02-24 05:45:00,
2013-02-24 00:50:00,35.0,35.0,30.08,NE,45,3.0,7.0,100,0.02,,,0.02,Weather View 32 v70,2013-02-24 05:50:00,
2013-02-24 00:55:00,35.0,35.0,30.08,NNE,22,3.0,7.0,100,0.02,,,0.02,Weather View 32 v70,2013-02-24 05:55:00,
2013-02-24 01:00:00,35.0,35.0,30.08,NE,45,4.0,7.0,100,0.02,,,0.02,Weather View 32 v70,2013-02-24 06:00:00,
2013-02-24 01:05:00,35.0,35.0,30.08,NNE,22,2.0,7.0,100,0.02,,,0.02,Weather View 32 v70,2013-02-24 06:05:00,
2013-02-24 01:10:00,35.0,35.0,30.07,NE,45,4.0,7.0,100,0.02,,,0.02,Weather View 32 v70,2013-02-24 06:10:00,
2013-02-24 01:15:00,35.0,35.0,30.07,NNE,22,5.0,7.0,100,0.02,,,0.02,Weather View 32 v70,2013-02-24 06:15:00,
2013-02-24 01:20:00,35.0,35.0,30.06,NE,45,6.0,7.0,100,0.02,,,0.02,Weather View 32 v70,2013-02-24 06:20:00,
2013-02-24 01:25:00,35.0,35.0,30.06,NE,45,4.0,7.0,100,0.01,,,0.02,Weather View 32 v70,2013-02-24 06:25:00,
2013-02-24 01:30:00,35.0,35.0,30.06,NNE,22,7.0,7.0,100,0.02,,,0.03,Weather View 32 v70,2013-02-24 06:30:00,
2013-02-24 01:35:00,35.0,35.0,30.06,NNE,22,5.0,9.0,100,0.02,,,0.03,Weather View 32 v70,2013-02-24 06:35:00,
2013-02-24 01:40:00,35.0,35.0,30.05,NNE,22,7.0,9.0,100,0.02,,,0.03,Weather View 32 v70,2013-02-24 06:40:00,
2013-02-24 01:46:00,35.0,35.0,30.05,NE,45,5.0,9.0,100,0.01,,,0.03,Weather View 32 v70,2013-02-24 06:46:00,
2013-02-24 01:51:00,35.0,35.0,30.04,NNE,22,6.0,9.0,100,-0.02,,,0.03,Weather View 32 v70,2013-02-24 06:51:00,
2013-02-24 01:56:00,35.0,35.0,30.04,NNE,22,6.0,9.0,100,-0.02,,,0.03,Weather View 32 v70,2013-02-24 06:56:00,
2013-02-24 02:01:00,35.0,35.0,30.04,NE,45,5.0,9.0,100,0.01,,,0.03,Weather View 32 v70,2013-02-24 07:01:00,
2013-02-24 02:06:00,35.0,35.0,30.04,NNE,22,5.0,9.0,100,0.01,,,0.03,Weather View 32 v70,2013-02-24 07:06:00,
2013-02-24 02:11:00,35.0,35.0,30.03,NE,45,2.0,9.0,100,0.01,,,0.03,Weather View 32 v70,2013-02-24 07:11:00,
2013-02-24 02:16:00,35.0,35.0,30.03,NNE,22,5.0,9.0,100,0.01,,,0.03,Weather View 32 v70,2013-02-24 07:16:00,
2013-02-24 02:21:00,35.0,35.0,30.03,NNE,22,6.0,9.0,100,0.01,,,0.03,Weather View 32 v70,2013-02-24 07:21:00,
2013-02-24 02:26:00,35.0,35.0,30.03,ENE,67,3.0,9.0,100,0.01,,,0.03,Weather View 32 v70,2013-02-24 07:26:00,
2013-02-24 02:31:00,35.0,35.0,30.03,East,90,6.0,9.0,100,0.00,,,0.03,Weather View 32 v70,2013-02-24 07:31:00,
2013-02-24 02:36:00,35.0,35.0,30.03,NNE,22,5.0,8.0,100,0.00,,,0.03,Weather View 32 v70,2013-02-24 07:36:00,
2013-02-24 02:41:00,35.0,35.0,30.03,ENE,67,5.0,8.0,100,0.00,,,0.03,Weather View 32 v70,2013-02-24 07:41:00,
2013-02-24 02:46:00,35.0,35.0,30.03,North,360,3.0,8.0,100,0.00,,,0.03,Weather View 32 v70,2013-02-24 07:46:00,
2013-02-24 02:51:00,35.0,35.0,30.02,NE,45,3.0,8.0,100,0.00,,,0.03,Weather View 32 v70,2013-02-24 07:51:00,
2013-02-24 02:56:00,35.0,35.0,30.02,NNE,22,4.0,8.0,100,0.00,,,0.03,Weather View 32 v70,2013-02-24 07:56:00,
2013-02-24 03:01:00,35.0,35.0,30.02,NE,45,2.0,8.0,100,0.00,,,0.03,Weather View 32 v70,2013-02-24 08:01:00,
2013-02-24 03:06:00,35.0,35.0,30.02,NNE,22,5.0,8.0,100,0.00,,,0.03,Weather View 32 v70,2013-02-24 08:06:00,
2013-02-24 03:11:00,35.0,35.0,30.02,NNW,337,6.0,8.0,100,0.00,,,0.03,Weather View 32 v70,2013-02-24 08:11:00,
2013-02-24 03:16:00,35.0,35.0,30.02,NW,315,6.0,8.0,100,0.00,,,0.03,Weather View 32 v70,2013-02-24 08:16:00,
2013-02-24 03:21:00,35.0,35.0,30.02,NNE,22,2.0,8.0,100,0.00,,,0.03,Weather View 32 v70,2013-02-24 08:21:00,
2013-02-24 03:26:00,35.0,35.0,30.02,NNW,337,1.0,7.0,100,0.00,,,0.03,Weather View 32 v70,2013-02-24 08:26:00,
2013-02-24 03:31:00,35.0,35.0,30.01,NNW,337,4.0,8.0,100,0.00,,,0.03,Weather View 32 v70,2013-02-24 08:31:00,
2013-02-24 03:36:00,35.0,35.0,30.01,NNW,337,5.0,9.0,100,0.00,,,0.03,Weather View 32 v70,2013-02-24 08:36:00,
2013-02-24 03:41:00,35.0,35.0,30.01,ENE,67,5.0,9.0,100,0.00,,,0.03,Weather View 32 v70,2013-02-24 08:41:00,
2013-02-24 03:46:00,35.0,35.0,30.01,NNW,337,6.0,9.0,100,0.00,,,0.03,Weather View 32 v70,2013-02-24 08:46:00,
2013-02-24 03:51:00,35.0,35.0,30.01,North,360,2.0,9.0,100,0.00,,,0.03,Weather View 32 v70,2013-02-24 08:51:00,
2013-02-24 03:56:00,35.0,35.0,30.01,North,360,1.0,9.0,100,0.00,,,0.03,Weather View 32 v70,2013-02-24 08:56:00,
2013-02-24 04:01:00,35.0,35.0,30.00,NNW,337,8.0,10.0,100,0.00,,,0.03,Weather View 32 v70,2013-02-24 09:01:00,
2013-02-24 04:06:00,35.0,35.0,30.00,NNE,22,1.0,10.0,100,0.00,,,0.03,Weather View 32 v70,2013-02-24 09:06:00,
2013-02-24 04:11:00,35.0,35.0,30.00,NNE,22,3.0,10.0,100,0.00,,,0.03,Weather View 32 v70,2013-02-24 09:11:00,
2013-02-24 04:16:00,35.0,35.0,30.00,North,360,2.0,10.0,100,0.00,,,0.03,Weather View 32 v70,2013-02-24 09:16:00,
2013-02-24 04:21:00,35.0,35.0,29.99,North,360,3.0,10.0,100,0.00,,,0.03,Weather View 32 v70,2013-02-24 09:21:00,
2013-02-24 04:26:00,35.0,35.0,29.99,North,360,2.0,10.0,100,0.00,,,0.03,Weather View 32 v70,2013-02-24 09:26:00,
2013-02-24 04:31:00,35.0,35.0,29.99,NNW,337,7.0,10.0,100,0.00,,,0.03,Weather View 32 v70,2013-02-24 09:31:00,
2013-02-24 04:36:00,35.0,35.0,29.99,North,360,5.0,10.0,100,0.00,,,0.03,Weather View 32 v70,2013-02-24 09:36:00,
2013-02-24 04:41:00,35.0,35.0,30.00,NW,315,8.0,10.0,100,0.00,,,0.03,Weather View 32 v70,2013-02-24 09:41:00,
2013-02-24 04:46:00,35.0,35.0,30.00,North,360,5.0,10.0,100,0.00,,,0.03,Weather View 32 v70,2013-02-24 09:46:00,
2013-02-24 04:51:00,35.0,35.0,30.01,NNW,337,6.0,10.0,100,0.00,,,0.03,Weather View 32 v70,2013-02-24 09:51:00,
2013-02-24 04:56:00,35.0,35.0,30.01,NNW,337,6.0,10.0,100,0.00,,,0.03,Weather View 32 v70,2013-02-24 09:56:00,
2013-02-24 05:01:00,35.0,35.0,30.02,North,360,6.0,10.0,100,0.00,,,0.03,Weather View 32 v70,2013-02-24 10:01:00,
2013-02-24 05:06:00,35.0,35.0,30.02,North,360,8.0,10.0,100,0.01,,,0.04,Weather View 32 v70,2013-02-24 10:06:00,
2013-02-24 05:11:00,36.0,36.0,30.02,NNW,337,6.0,10.0,100,0.01,,,0.04,Weather View 32 v70,2013-02-24 10:11:00,
2013-02-24 05:16:00,36.0,36.0,30.02,NNE,22,4.0,10.0,100,0.01,,,0.04,Weather View 32 v70,2013-02-24 10:16:00,
2013-02-24 05:21:00,35.0,35.0,30.02,NNW,337,3.0,10.0,100,0.02,,,0.05,Weather View 32 v70,2013-02-24 10:21:00,
2013-02-24 05:26:00,35.0,35.0,30.02,NNE,22,6.0,11.0,100,0.02,,,0.05,Weather View 32 v70,2013-02-24 10:26:00,
2013-02-24 05:31:00,36.0,36.0,30.02,North,360,5.0,11.0,100,0.02,,,0.05,Weather View 32 v70,2013-02-24 10:31:00,
2013-02-24 05:36:00,36.0,36.0,30.02,NNW,337,9.0,11.0,100,0.02,,,0.05,Weather View 32 v70,2013-02-24 10:36:00,
2013-02-24 05:41:00,36.0,36.0,30.02,NNW,337,6.0,11.0,100,0.02,,,0.05,Weather View 32 v70,2013-02-24 10:41:00,
2013-02-24 05:46:00,36.0,36.0,30.02,North,360,4.0,11.0,100,0.02,,,0.05,Weather View 32 v70,2013-02-24 10:46:00,
2013-02-24 05:51:00,36.0,36.0,30.01,North,360,5.0,11.0,100,0.02,,,0.05,Weather View 32 v70,2013-02-24 10:51:00,
2013-02-24 05:56:00,35.0,35.0,30.01,NNE,22,4.0,11.0,100,0.02,,,0.05,Weather View 32 v70,2013-02-24 10:56:00,
2013-02-24 06:01:00,35.0,35.0,30.00,North,360,6.0,11.0,100,0.02,,,0.05,Weather View 32 v70,2013-02-24 11:01:00,
2013-02-24 06:06:00,36.0,36.0,30.00,NNW,337,2.0,11.0,100,0.02,,,0.06,Weather View 32 v70,2013-02-24 11:06:00,
2013-02-24 06:11:00,36.0,36.0,30.00,North,360,6.0,11.0,100,0.02,,,0.06,Weather View 32 v70,2013-02-24 11:11:00,
2013-02-24 06:16:00,36.0,36.0,30.00,North,360,6.0,11.0,100,0.02,,,0.06,Weather View 32 v70,2013-02-24 11:16:00,
2013-02-24 06:21:00,36.0,36.0,30.00,NNW,337,6.0,11.0,100,0.01,,,0.06,Weather View 32 v70,2013-02-24 11:21:00,
2013-02-24 06:26:00,36.0,36.0,30.00,North,360,4.0,11.0,100,0.01,,,0.06,Weather View 32 v70,2013-02-24 11:26:00,
2013-02-24 06:31:00,36.0,36.0,29.99,NNW,337,6.0,11.0,100,0.01,,,0.06,Weather View 32 v70,2013-02-24 11:31:00,
2013-02-24 06:36:00,36.0,36.0,29.99,North,360,6.0,10.0,100,0.01,,,0.06,Weather View 32 v70,2013-02-24 11:36:00,
2013-02-24 06:41:00,36.0,36.0,29.98,North,360,6.0,10.0,100,0.01,,,0.06,Weather View 32 v70,2013-02-24 11:41:00,
2013-02-24 06:46:00,36.0,36.0,29.98,NE,45,6.0,10.0,100,0.01,,,0.06,Weather View 32 v70,2013-02-24 11:46:00,
2013-02-24 06:51:00,36.0,36.0,29.98,NNW,337,2.0,10.0,100,0.01,,,0.06,Weather View 32 v70,2013-02-24 11:51:00,
2013-02-24 06:56:00,36.0,36.0,29.98,NNW,337,7.0,10.0,100,0.01,,,0.06,Weather View 32 v70,2013-02-24 11:56:00,
2013-02-24 07:01:00,36.0,36.0,29.98,NE,45,5.0,10.0,100,0.01,,,0.06,Weather View 32 v70,2013-02-24 12:01:00,
2013-02-24 07:06:00,36.0,36.0,29.98,NNE,22,6.0,11.0,100,0.00,,,0.06,Weather View 32 v70,2013-02-24 12:06:00,
2013-02-24 07:11:00,37.0,37.0,29.97,NNE,22,7.0,11.0,100,0.00,,,0.06,Weather View 32 v70,2013-02-24 12:11:00,
2013-02-24 07:16:00,37.0,37.0,29.97,NW,315,6.0,12.0,100,0.00,,,0.06,Weather View 32 v70,2013-02-24 12:16:00,
2013-02-24 07:21:00,37.0,37.0,29.98,NW,315,6.0,12.0,100,0.00,,,0.06,Weather View 32 v70,2013-02-24 12:21:00,
2013-02-24 07:26:00,37.0,37.0,29.98,NNW,337,9.0,12.0,100,0.00,,,0.06,Weather View 32 v70,2013-02-24 12:26:00,
2013-02-24 07:31:00,37.0,37.0,29.97,NNW,337,5.0,12.0,100,0.00,,,0.06,Weather View 32 v70,2013-02-24 12:31:00,
2013-02-24 07:36:00,37.0,37.0,29.97,North,360,7.0,12.0,100,0.00,,,0.06,Weather View 32 v70,2013-02-24 12:36:00,
2013-02-24 07:41:00,37.0,37.0,29.98,North,360,6.0,12.0,100,0.00,,,0.06,Weather View 32 v70,2013-02-24 12:41:00,
2013-02-24 07:47:00,37.0,37.0,29.98,North,360,7.0,12.0,100,0.00,,,0.06,Weather View 32 v70,2013-02-24 12:47:00,
2013-02-24 07:52:00,37.0,37.0,29.98,NNW,337,6.0,12.0,100,-0.06,,,0.06,Weather View 32 v70,2013-02-24 12:52:00,
2013-02-24 07:57:00,37.0,37.0,29.98,North,360,7.0,13.0,100,0.00,,,0.06,Weather View 32 v70,2013-02-24 12:57:00,
2013-02-24 08:02:00,37.0,37.0,29.97,North,360,5.0,13.0,100,0.00,,,0.06,Weather View 32 v70,2013-02-24 13:02:00,
2013-02-24 08:07:00,37.0,37.0,29.97,NNW,337,6.0,13.0,100,0.00,,,0.06,Weather View 32 v70,2013-02-24 13:07:00,
2013-02-24 08:12:00,37.0,37.0,29.98,NNW,337,9.0,13.0,100,0.00,,,0.06,Weather View 32 v70,2013-02-24 13:12:00,
2013-02-24 08:17:00,37.0,37.0,29.98,NNW,337,5.0,13.0,100,0.00,,,0.06,Weather View 32 v70,2013-02-24 13:17:00,
2013-02-24 08:22:00,37.0,37.0,29.97,North,360,1.0,13.0,100,0.00,,,0.06,Weather View 32 v70,2013-02-24 13:22:00,
2013-02-24 08:27:00,37.0,37.0,29.97,North,360,6.0,13.0,100,0.00,,,0.06,Weather View 32 v70,2013-02-24 13:27:00,
2013-02-24 08:32:00,37.0,37.0,29.98,NNW,337,4.0,13.0,100,0.00,,,0.06,Weather View 32 v70,2013-02-24 13:32:00,
2013-02-24 08:37:00,37.0,37.0,29.98,North,360,6.0,13.0,100,0.00,,,0.06,Weather View 32 v70,2013-02-24 13:37:00,
2013-02-24 08:42:00,37.0,37.0,29.98,NNE,22,1.0,13.0,100,0.00,,,0.06,Weather View 32 v70,2013-02-24 13:42:00,
2013-02-24 08:47:00,37.0,37.0,29.98,NNW,337,5.0,13.0,100,0.01,,,0.07,Weather View 32 v70,2013-02-24 13:47:00,
2013-02-24 08:52:00,38.0,38.0,29.96,North,360,6.0,13.0,100,0.01,,,0.07,Weather View 32 v70,2013-02-24 13:52:00,
2013-02-24 08:57:00,38.0,38.0,29.96,NNW,337,3.0,12.0,100,0.01,,,0.07,Weather View 32 v70,2013-02-24 13:57:00,
2013-02-24 09:02:00,38.0,38.0,29.97,NNW,337,7.0,12.0,100,0.01,,,0.07,Weather View 32 v70,2013-02-24 14:02:00,
2013-02-24 09:07:00,38.0,38.0,29.97,NNE,22,6.0,12.0,100,0.01,,,0.07,Weather View 32 v70,2013-02-24 14:07:00,
2013-02-24 09:12:00,38.0,38.0,29.97,NNW,337,6.0,12.0,100,0.01,,,0.07,Weather View 32 v70,2013-02-24 14:12:00,
2013-02-24 09:17:00,38.0,38.0,29.97,North,360,6.0,12.0,100,0.01,,,0.07,Weather View 32 v70,2013-02-24 14:17:00,
2013-02-24 09:22:00,38.0,38.0,29.96,NNW,337,5.0,12.0,100,0.01,,,0.07,Weather View 32 v70,2013-02-24 14:22:00,
2013-02-24 09:27:00,38.0,38.0,29.96,NNW,337,7.0,12.0,100,0.01,,,0.07,Weather View 32 v70,2013-02-24 14:27:00,
2013-02-24 09:32:00,38.0,38.0,29.96,NNW,337,5.0,12.0,100,0.01,,,0.07,Weather View 32 v70,2013-02-24 14:32:00,
2013-02-24 09:37:00,38.0,38.0,29.96,NNW,337,7.0,12.0,100,0.01,,,0.07,Weather View 32 v70,2013-02-24 14:37:00,
2013-02-24 09:42:00,38.0,38.0,29.96,NNW,337,5.0,12.0,100,0.01,,,0.07,Weather View 32 v70,2013-02-24 14:42:00,
2013-02-24 09:47:00,38.0,38.0,29.96,NNW,337,6.0,12.0,100,0.00,,,0.07,Weather View 32 v70,2013-02-24 14:47:00,
2013-02-24 09:52:00,38.0,38.0,29.96,NNW,337,5.0,12.0,100,0.00,,,0.07,Weather View 32 v70,2013-02-24 14:52:00,
2013-02-24 09:57:00,38.0,38.0,29.96,NW,315,9.0,13.0,100,0.00,,,0.07,Weather View 32 v70,2013-02-24 14:57:00,
2013-02-24 10:02:00,38.0,37.5,29.97,NNW,337,17.0,17.0,98,0.01,,,0.08,Weather View 32 v70,2013-02-24 15:02:00,
2013-02-24 10:07:00,38.0,37.5,29.97,North,360,10.0,17.0,98,0.01,,,0.08,Weather View 32 v70,2013-02-24 15:07:00,
2013-02-24 10:12:00,38.0,37.5,29.97,NW,315,10.0,17.0,98,0.02,,,0.09,Weather View 32 v70,2013-02-24 15:12:00,
2013-02-24 10:17:00,38.0,37.5,29.97,North,360,6.0,17.0,98,0.02,,,0.09,Weather View 32 v70,2013-02-24 15:17:00,
2013-02-24 10:22:00,38.0,37.5,29.97,NNW,337,9.0,17.0,98,0.02,,,0.09,Weather View 32 v70,2013-02-24 15:22:00,
2013-02-24 10:27:00,38.0,37.5,29.97,NNE,22,6.0,17.0,98,0.02,,,0.09,Weather View 32 v70,2013-02-24 15:27:00,
2013-02-24 10:32:00,39.0,38.2,29.96,NNE,22,5.0,17.0,97,0.03,,,0.10,Weather View 32 v70,2013-02-24 15:32:00,
2013-02-24 10:37:00,39.0,38.5,29.96,ESE,112,0.0,17.0,98,0.04,,,0.11,Weather View 32 v70,2013-02-24 15:37:00,
2013-02-24 10:42:00,39.0,38.5,29.96,NNW,337,7.0,17.0,98,0.04,,,0.11,Weather View 32 v70,2013-02-24 15:42:00,
2013-02-24 10:47:00,39.0,38.2,29.96,North,360,5.0,17.0,97,0.04,,,0.11,Weather View 32 v70,2013-02-24 15:47:00,
2013-02-24 10:52:00,39.0,38.5,29.94,North,360,5.0,17.0,98,0.04,,,0.11,Weather View 32 v70,2013-02-24 15:52:00,
2013-02-24 10:57:00,39.0,38.2,29.94,NNW,337,4.0,17.0,97,0.05,,,0.12,Weather View 32 v70,2013-02-24 15:57:00,
2013-02-24 11:02:00,39.0,38.2,29.94,NE,45,1.0,17.0,97,0.04,,,0.12,Weather View 32 v70,2013-02-24 16:02:00,
2013-02-24 11:07:00,40.0,39.5,29.94,NNW,337,5.0,13.0,98,0.04,,,0.12,Weather View 32 v70,2013-02-24 16:07:00,
2013-02-24 11:12:00,40.0,39.2,29.94,NNW,337,6.0,13.0,97,0.03,,,0.12,Weather View 32 v70,2013-02-24 16:12:00,
2013-02-24 11:17:00,40.0,38.7,29.94,NNW,337,9.0,13.0,95,0.03,,,0.12,Weather View 32 v70,2013-02-24 16:17:00,
2013-02-24 11:22:00,40.0,39.2,29.95,NNW,337,5.0,13.0,97,0.03,,,0.12,Weather View 32 v70,2013-02-24 16:22:00,
2013-02-24 11:27:00,39.0,38.2,29.95,NNW,337,6.0,12.0,97,0.03,,,0.12,Weather View 32 v70,2013-02-24 16:27:00,
2013-02-24 11:32:00,39.0,38.2,29.95,NNE,22,4.0,12.0,97,0.02,,,0.12,Weather View 32 v70,2013-02-24 16:32:00,
2013-02-24 11:37:00,40.0,39.2,29.95,North,360,5.0,12.0,97,0.01,,,0.12,Weather View 32 v70,2013-02-24 16:37:00,
2013-02-24 11:42:00,40.0,39.0,29.95,NNW,337,5.0,12.0,96,0.01,,,0.12,Weather View 32 v70,2013-02-24 16:42:00,
2013-02-24 11:47:00,40.0,39.2,29.95,NNW,337,6.0,12.0,97,0.01,,,0.12,Weather View 32 v70,2013-02-24 16:47:00,
2013-02-24 11:52:00,40.0,39.2,29.95,NNW,337,6.0,12.0,97,0.01,,,0.12,Weather View 32 v70,2013-02-24 16:52:00,
2013-02-24 11:57:00,40.0,39.0,29.95,NNW,337,9.0,12.0,96,0.00,,,0.12,Weather View 32 v70,2013-02-24 16:57:00,
2013-02-24 12:02:00,40.0,38.7,29.94,NNW,337,6.0,14.0,95,0.00,,,0.12,Weather View 32 v70,2013-02-24 17:02:00,
2013-02-24 12:07:00,40.0,39.0,29.94,NNW,337,4.0,14.0,96,0.00,,,0.12,Weather View 32 v70,2013-02-24 17:07:00,
2013-02-24 12:12:00,40.0,39.0,29.94,NW,315,0.0,14.0,96,0.00,,,0.12,Weather View 32 v70,2013-02-24 17:12:00,
2013-02-24 12:17:00,40.0,38.7,29.94,NE,45,4.0,14.0,95,0.00,,,0.12,Weather View 32 v70,2013-02-24 17:17:00,
2013-02-24 12:22:00,40.0,38.7,29.94,North,360,3.0,14.0,95,0.00,,,0.12,Weather View 32 v70,2013-02-24 17:22:00,
2013-02-24 12:27:00,40.0,38.7,29.94,NNW,337,7.0,14.0,95,0.00,,,0.12,Weather View 32 v70,2013-02-24 17:27:00,
2013-02-24 12:32:00,41.0,39.7,29.94,NNW,337,4.0,14.0,95,0.00,,,0.12,Weather View 32 v70,2013-02-24 17:32:00,
2013-02-24 12:37:00,41.0,39.7,29.94,North,360,5.0,14.0,95,0.00,,,0.12,Weather View 32 v70,2013-02-24 17:37:00,
2013-02-24 12:42:00,41.0,39.4,29.94,NNW,337,3.0,14.0,94,0.00,,,0.12,Weather View 32 v70,2013-02-24 17:42:00,
2013-02-24 12:47:00,41.0,39.1,29.94,North,360,6.0,14.0,93,0.00,,,0.12,Weather View 32 v70,2013-02-24 17:47:00,
2013-02-24 12:52:00,41.0,39.1,29.94,NNW,337,7.0,14.0,93,0.00,,,0.12,Weather View 32 v70,2013-02-24 17:52:00,
2013-02-24 12:57:00,41.0,39.1,29.94,NNW,337,7.0,14.0,93,0.00,,,0.12,Weather View 32 v70,2013-02-24 17:57:00,
2013-02-24 13:02:00,41.0,39.1,29.94,NNW,337,7.0,13.0,93,0.00,,,0.12,Weather View 32 v70,2013-02-24 18:02:00,
2013-02-24 13:07:00,41.0,38.9,29.94,NW,315,7.0,13.0,92,0.00,,,0.12,Weather View 32 v70,2013-02-24 18:07:00,
2013-02-24 13:12:00,41.0,39.1,29.94,NNW,337,4.0,13.0,93,0.00,,,0.12,Weather View 32 v70,2013-02-24 18:12:00,
2013-02-24 13:17:00,41.0,38.9,29.94,North,360,6.0,13.0,92,0.00,,,0.12,Weather View 32 v70,2013-02-24 18:17:00,
2013-02-24 13:22:00,41.0,38.9,29.94,NNW,337,0.0,13.0,92,0.00,,,0.12,Weather View 32 v70,2013-02-24 18:22:00,
2013-02-24 13:27:00,41.0,38.9,29.94,NNW,337,4.0,13.0,92,0.00,,,0.12,Weather View 32 v70,2013-02-24 18:27:00,
2013-02-24 13:32:00,41.0,39.1,29.94,NW,315,6.0,13.0,93,0.00,,,0.12,Weather View 32 v70,2013-02-24 18:32:00,
2013-02-24 13:37:00,40.0,38.7,29.94,NNW,337,6.0,13.0,95,0.00,,,0.12,Weather View 32 v70,2013-02-24 18:37:00,
2013-02-24 13:42:00,40.0,39.0,29.94,NW,315,0.0,13.0,96,0.00,,,0.12,Weather View 32 v70,2013-02-24 18:42:00,
2013-02-24 13:47:00,40.0,39.0,29.94,NNW,337,8.0,13.0,96,0.00,,,0.12,Weather View 32 v70,2013-02-24 18:47:00,
2013-02-24 13:52:00,40.0,39.2,29.94,NW,315,4.0,13.0,97,0.00,,,0.12,Weather View 32 v70,2013-02-24 18:52:00,
2013-02-24 13:57:00,40.0,39.2,29.94,North,360,2.0,13.0,97,0.00,,,0.12,Weather View 32 v70,2013-02-24 18:57:00,
2013-02-24 14:02:00,40.0,39.2,29.94,North,360,1.0,13.0,97,0.00,,,0.12,Weather View 32 v70,2013-02-24 19:02:00,
2013-02-24 14:07:00,40.0,39.2,29.94,WSW,247,0.0,13.0,97,0.00,,,0.12,Weather View 32 v70,2013-02-24 19:07:00,
2013-02-24 14:12:00,40.0,39.2,29.94,NNW,337,6.0,13.0,97,0.00,,,0.12,Weather View 32 v70,2013-02-24 19:12:00,
2013-02-24 14:17:00,39.0,38.0,29.94,NNW,337,5.0,13.0,96,0.00,,,0.12,Weather View 32 v70,2013-02-24 19:17:00,
2013-02-24 14:22:00,39.0,38.2,29.95,NNW,337,7.0,10.0,97,0.00,,,0.12,Weather View 32 v70,2013-02-24 19:22:00,
2013-02-24 14:27:00,39.0,38.2,29.95,NW,315,1.0,10.0,97,0.00,,,0.12,Weather View 32 v70,2013-02-24 19:27:00,
2013-02-24 14:32:00,39.0,38.2,29.96,North,360,4.0,10.0,97,0.00,,,0.12,Weather View 32 v70,2013-02-24 19:32:00,
2013-02-24 14:37:00,39.0,38.0,29.96,NW,315,7.0,10.0,96,0.00,,,0.12,Weather View 32 v70,2013-02-24 19:37:00,
2013-02-24 14:42:00,39.0,37.7,29.96,NNW,337,7.0,11.0,95,0.00,,,0.12,Weather View 32 v70,2013-02-24 19:42:00,
2013-02-24 14:47:00,39.0,37.7,29.96,North,360,1.0,11.0,95,0.00,,,0.12,Weather View 32 v70,2013-02-24 19:47:00,
2013-02-24 14:52:00,39.0,37.4,29.96,North,360,7.0,11.0,94,0.00,,,0.12,Weather View 32 v70,2013-02-24 19:52:00,
2013-02-24 14:57:00,39.0,37.4,29.96,NNW,337,6.0,11.0,94,0.00,,,0.12,Weather View 32 v70,2013-02-24 19:57:00,
2013-02-24 15:02:00,39.0,37.1,29.96,NNW,337,2.0,11.0,93,0.00,,,0.12,Weather View 32 v70,2013-02-24 20:02:00,
2013-02-24 15:07:00,39.0,37.1,29.96,North,360,2.0,12.0,93,0.00,,,0.12,Weather View 32 v70,2013-02-24 20:07:00,
2013-02-24 15:12:00,39.0,37.1,29.97,NNW,337,2.0,12.0,93,0.00,,,0.12,Weather View 32 v70,2013-02-24 20:12:00,
2013-02-24 15:17:00,39.0,36.9,29.97,NNW,337,7.0,12.0,92,0.00,,,0.12,Weather View 32 v70,2013-02-24 20:17:00,
2013-02-24 15:23:00,38.0,36.2,29.98,NNW,337,4.0,12.0,93,0.00,,,0.12,Weather View 32 v70,2013-02-24 20:23:00,
2013-02-24 15:28:00,38.0,36.2,29.98,NW,315,8.0,12.0,93,-0.12,,,0.12,Weather View 32 v70,2013-02-24 20:28:00,
2013-02-24 15:33:00,38.0,35.9,29.99,North,360,6.0,12.0,92,0.00,,,0.12,Weather View 32 v70,2013-02-24 20:33:00,
2013-02-24 15:38:00,38.0,35.9,29.99,NNW,337,6.0,12.0,92,0.00,,,0.12,Weather View 32 v70,2013-02-24 20:38:00,
2013-02-24 15:43:00,38.0,36.2,29.99,North,360,7.0,12.0,93,0.00,,,0.12,Weather View 32 v70,2013-02-24 20:43:00,
2013-02-24 15:48:00,38.0,36.2,29.99,NNW,337,4.0,12.0,93,0.00,,,0.12,Weather View 32 v70,2013-02-24 20:48:00,
2013-02-24 15:53:00,38.0,35.9,29.99,NNW,337,7.0,12.0,92,0.00,,,0.12,Weather View 32 v70,2013-02-24 20:53:00,
2013-02-24 15:58:00,38.0,35.9,29.99,WNW,292,2.0,12.0,92,0.00,,,0.12,Weather View 32 v70,2013-02-24 20:58:00,
2013-02-24 16:03:00,38.0,35.6,29.99,NNW,337,7.0,12.0,91,0.00,,,0.12,Weather View 32 v70,2013-02-24 21:03:00,
2013-02-24 16:08:00,38.0,36.2,29.99,NNW,337,8.0,12.0,93,0.00,,,0.12,Weather View 32 v70,2013-02-24 21:08:00,
2013-02-24 16:13:00,38.0,36.2,30.00,NNW,337,4.0,12.0,93,0.00,,,0.12,Weather View 32 v70,2013-02-24 21:13:00,
2013-02-24 16:18:00,38.0,36.4,30.00,NNW,337,3.0,12.0,94,0.00,,,0.12,Weather View 32 v70,2013-02-24 21:18:00,
2013-02-24 16:23:00,38.0,36.4,30.00,North,360,5.0,12.0,94,0.00,,,0.12,Weather View 32 v70,2013-02-24 21:23:00,
2013-02-24 16:28:00,38.0,36.7,30.00,NNW,337,6.0,12.0,95,0.00,,,0.12,Weather View 32 v70,2013-02-24 21:28:00,
2013-02-24 16:33:00,37.0,35.7,30.00,NNW,337,8.0,12.0,95,0.00,,,0.12,Weather View 32 v70,2013-02-24 21:33:00,
2013-02-24 16:38:00,37.0,35.7,30.00,NNW,337,4.0,12.0,95,0.00,,,0.12,Weather View 32 v70,2013-02-24 21:38:00,
2013-02-24 16:43:00,37.0,35.7,30.01,NNW,337,1.0,12.0,95,0.00,,,0.12,Weather View 32 v70,2013-02-24 21:43:00,
2013-02-24 16:48:00,37.0,36.0,30.01,North,360,3.0,11.0,96,0.00,,,0.12,Weather View 32 v70,2013-02-24 21:48:00,
2013-02-24 16:53:00,37.0,36.0,30.01,NNW,337,9.0,11.0,96,0.00,,,0.12,Weather View 32 v70,2013-02-24 21:53:00,
2013-02-24 16:58:00,37.0,36.0,30.01,NNW,337,0.0,11.0,96,0.00,,,0.12,Weather View 32 v70,2013-02-24 21:58:00,
2013-02-24 17:03:00,37.0,36.0,30.01,NNW,337,4.0,10.0,96,0.00,,,0.12,Weather View 32 v70,2013-02-24 22:03:00,
2013-02-24 17:08:00,37.0,36.0,30.01,NNW,337,4.0,10.0,96,0.00,,,0.12,Weather View 32 v70,2013-02-24 22:08:00,
2013-02-24 17:13:00,37.0,36.0,30.01,NNW,337,0.0,9.0,96,0.00,,,0.12,Weather View 32 v70,2013-02-24 22:13:00,
2013-02-24 17:18:00,36.0,35.2,30.01,NNW,337,2.0,9.0,97,0.00,,,0.12,Weather View 32 v70,2013-02-24 22:18:00,
2013-02-24 17:23:00,36.0,35.2,30.02,NNW,337,3.0,9.0,97,0.00,,,0.12,Weather View 32 v70,2013-02-24 22:23:00,
2013-02-24 17:28:00,36.0,35.2,30.02,NNW,337,3.0,9.0,97,0.00,,,0.12,Weather View 32 v70,2013-02-24 22:28:00,
2013-02-24 17:33:00,36.0,35.5,30.03,NNW,337,6.0,9.0,98,0.00,,,0.12,Weather View 32 v70,2013-02-24 22:33:00,
2013-02-24 17:38:00,37.0,36.5,30.03,NNW,337,2.0,9.0,98,0.00,,,0.12,Weather View 32 v70,2013-02-24 22:38:00,
2013-02-24 17:43:00,37.0,36.5,30.04,NNW,337,3.0,9.0,98,0.00,,,0.12,Weather View 32 v70,2013-02-24 22:43:00,
2013-02-24 17:48:00,37.0,36.5,30.04,NNW,337,0.0,9.0,98,0.00,,,0.12,Weather View 32 v70,2013-02-24 22:48:00,
2013-02-24 17:53:00,37.0,36.5,30.04,NNW,337,1.0,9.0,98,0.00,,,0.12,Weather View 32 v70,2013-02-24 22:53:00,
2013-02-24 17:58:00,37.0,36.0,30.04,NNW,337,6.0,7.0,96,0.00,,,0.12,Weather View 32 v70,2013-02-24 22:58:00,
2013-02-24 18:03:00,37.0,36.2,30.06,NW,315,1.0,7.0,97,0.00,,,0.12,Weather View 32 v70,2013-02-24 23:03:00,
2013-02-24 18:08:00,37.0,36.0,30.06,NW,315,3.0,7.0,96,0.00,,,0.12,Weather View 32 v70,2013-02-24 23:08:00,
2013-02-24 18:13:00,37.0,36.0,30.06,NNW,337,4.0,7.0,96,0.00,,,0.12,Weather View 32 v70,2013-02-24 23:13:00,
2013-02-24 18:18:00,36.0,35.0,30.06,NNW,337,4.0,7.0,96,0.00,,,0.12,Weather View 32 v70,2013-02-24 23:18:00,
2013-02-24 18:23:00,36.0,35.0,30.08,NNW,337,6.0,7.0,96,0.00,,,0.12,Weather View 32 v70,2013-02-24 23:23:00,
2013-02-24 18:28:00,36.0,35.0,30.09,NNW,337,2.0,8.0,96,0.00,,,0.12,Weather View 32 v70,2013-02-24 23:28:00,
2013-02-24 18:33:00,36.0,35.2,30.09,NNW,337,4.0,8.0,97,0.00,,,0.12,Weather View 32 v70,2013-02-24 23:33:00,
2013-02-24 18:38:00,36.0,35.2,30.09,NNW,337,2.0,8.0,97,0.00,,,0.12,Weather View 32 v70,2013-02-24 23:38:00,
2013-02-24 18:43:00,36.0,35.5,30.09,NNW,337,4.0,8.0,98,0.00,,,0.12,Weather View 32 v70,2013-02-24 23:43:00,
2013-02-24 18:48:00,36.0,35.5,30.09,NNW,337,1.0,8.0,98,0.00,,,0.12,Weather View 32 v70,2013-02-24 23:48:00,
2013-02-24 18:53:00,36.0,35.5,30.09,NNW,337,2.0,8.0,98,0.01,,,0.13,Weather View 32 v70,2013-02-24 23:53:00,
2013-02-24 18:58:00,36.0,35.5,30.09,NNW,337,2.0,8.0,98,0.01,,,0.13,Weather View 32 v70,2013-02-24 23:58:00,
2013-02-24 19:03:00,35.0,34.7,30.09,NNW,337,2.0,8.0,99,0.01,,,0.13,Weather View 32 v70,2013-02-25 00:03:00,
2013-02-24 19:08:00,35.0,34.7,30.10,NNW,337,6.0,8.0,99,0.01,,,0.13,Weather View 32 v70,2013-02-25 00:08:00,
2013-02-24 19:13:00,35.0,35.0,30.10,NNW,337,1.0,8.0,100,0.01,,,0.13,Weather View 32 v70,2013-02-25 00:13:00,
2013-02-24 19:18:00,35.0,35.0,30.11,WNW,292,2.0,8.0,100,0.01,,,0.13,Weather View 32 v70,2013-02-25 00:18:00,
2013-02-24 19:23:00,35.0,35.0,30.11,NNW,337,2.0,8.0,100,0.01,,,0.14,Weather View 32 v70,2013-02-25 00:23:00,
2013-02-24 19:29:00,35.0,35.0,30.11,NW,315,5.0,8.0,100,0.02,,,0.14,Weather View 32 v70,2013-02-25 00:29:00,
2013-02-24 19:34:00,35.0,35.0,30.11,NNW,337,4.0,8.0,100,0.02,,,0.14,Weather View 32 v70,2013-02-25 00:34:00,
2013-02-24 19:39:00,35.0,35.0,30.12,NNW,337,1.0,8.0,100,0.03,,,0.15,Weather View 32 v70,2013-02-25 00:39:00,
2013-02-24 19:44:00,34.0,34.0,30.12,NW,315,0.0,8.0,100,0.03,,,0.15,Weather View 32 v70,2013-02-25 00:44:00,
2013-02-24 19:49:00,34.0,34.0,30.14,NW,315,2.0,8.0,100,0.03,,,0.15,Weather View 32 v70,2013-02-25 00:49:00,
2013-02-24 19:54:00,34.0,34.0,30.14,NNW,337,3.0,8.0,100,0.02,,,0.15,Weather View 32 v70,2013-02-25 00:54:00,
2013-02-24 19:59:00,34.0,34.0,30.14,WNW,292,0.0,8.0,100,0.02,,,0.15,Weather View 32 v70,2013-02-25 00:59:00,
2013-02-24 20:04:00,34.0,34.0,30.14,NNW,337,6.0,8.0,100,0.02,,,0.15,Weather View 32 v70,2013-02-25 01:04:00,
2013-02-24 20:09:00,34.0,34.0,30.14,NNW,337,7.0,10.0,100,0.02,,,0.15,Weather View 32 v70,2013-02-25 01:09:00,
2013-02-24 20:14:00,34.0,34.0,30.14,WSW,247,0.0,10.0,100,0.02,,,0.15,Weather View 32 v70,2013-02-25 01:14:00,
2013-02-24 20:19:00,34.0,34.0,30.15,NNW,337,5.0,10.0,100,0.02,,,0.15,Weather View 32 v70,2013-02-25 01:19:00,
2013-02-24 20:24:00,33.0,33.0,30.15,NNW,337,4.0,10.0,100,0.01,,,0.15,Weather View 32 v70,2013-02-25 01:24:00,
2013-02-24 20:29:00,33.0,33.0,30.16,NNW,337,6.0,10.0,100,0.01,,,0.15,Weather View 32 v70,2013-02-25 01:29:00,
2013-02-24 20:34:00,33.0,33.0,30.16,NNW,337,6.0,10.0,100,0.01,,,0.15,Weather View 32 v70,2013-02-25 01:34:00,
2013-02-24 20:39:00,33.0,33.0,30.16,NNW,337,5.0,10.0,100,0.00,,,0.15,Weather View 32 v70,2013-02-25 01:39:00,
2013-02-24 20:44:00,33.0,33.0,30.16,NNE,22,1.0,10.0,100,0.00,,,0.15,Weather View 32 v70,2013-02-25 01:44:00,
2013-02-24 20:49:00,33.0,33.0,30.17,NNE,22,9.0,10.0,100,0.00,,,0.15,Weather View 32 v70,2013-02-25 01:49:00,
2013-02-24 20:54:00,33.0,33.0,30.17,NNW,337,4.0,10.0,100,0.00,,,0.15,Weather View 32 v70,2013-02-25 01:54:00,
2013-02-24 20:59:00,33.0,33.0,30.17,NNW,337,3.0,10.0,100,0.00,,,0.15,Weather View 32 v70,2013-02-25 01:59:00,
2013-02-24 21:04:00,32.0,32.0,30.17,NNW,337,1.0,10.0,100,0.00,,,0.15,Weather View 32 v70,2013-02-25 02:04:00,
2013-02-24 21:09:00,32.0,32.0,30.18,NNW,337,4.0,10.0,100,0.00,,,0.15,Weather View 32 v70,2013-02-25 02:09:00,
2013-02-24 21:14:00,32.0,32.0,30.18,NNW,337,2.0,10.0,100,0.00,,,0.15,Weather View 32 v70,2013-02-25 02:14:00,
2013-02-24 21:19:00,32.0,32.0,30.18,NNW,337,6.0,13.0,100,0.00,,,0.15,Weather View 32 v70,2013-02-25 02:19:00,
2013-02-24 21:24:00,32.0,32.0,30.18,NNW,337,7.0,13.0,100,0.00,,,0.15,Weather View 32 v70,2013-02-25 02:24:00,
2013-02-24 21:29:00,32.0,32.0,30.18,WNW,292,2.0,13.0,100,0.01,,,0.16,Weather View 32 v70,2013-02-25 02:29:00,
2013-02-24 21:34:00,32.0,32.0,30.18,NNW,337,7.0,13.0,100,0.01,,,0.16,Weather View 32 v70,2013-02-25 02:34:00,
2013-02-24 21:39:00,32.0,32.0,30.18,NNW,337,2.0,13.0,100,0.01,,,0.16,Weather View 32 v70,2013-02-25 02:39:00,
2013-02-24 21:44:00,32.0,32.0,30.18,NNW,337,5.0,13.0,100,0.01,,,0.16,Weather View 32 v70,2013-02-25 02:44:00,
2013-02-24 21:49:00,32.0,32.0,30.18,NNW,337,3.0,13.0,100,0.01,,,0.16,Weather View 32 v70,2013-02-25 02:49:00,
2013-02-24 21:54:00,32.0,32.0,30.18,WNW,292,2.0,13.0,100,0.01,,,0.16,Weather View 32 v70,2013-02-25 02:54:00,
2013-02-24 21:59:00,32.0,32.0,30.19,NW,315,4.0,13.0,100,0.01,,,0.16,Weather View 32 v70,2013-02-25 02:59:00,
2013-02-24 22:04:00,32.0,32.0,30.19,NNW,337,4.0,13.0,100,0.01,,,0.16,Weather View 32 v70,2013-02-25 03:04:00,
2013-02-24 22:09:00,32.0,32.0,30.19,NNW,337,0.0,13.0,100,0.01,,,0.16,Weather View 32 v70,2013-02-25 03:09:00,
2013-02-24 22:14:00,32.0,32.0,30.19,NNW,337,2.0,13.0,100,0.01,,,0.16,Weather View 32 v70,2013-02-25 03:14:00,
2013-02-24 22:19:00,32.0,32.0,30.19,NNW,337,4.0,11.0,100,0.01,,,0.16,Weather View 32 v70,2013-02-25 03:19:00,
2013-02-24 22:24:00,32.0,32.0,30.19,NNW,337,2.0,11.0,100,0.01,,,0.16,Weather View 32 v70,2013-02-25 03:24:00,
2013-02-24 22:30:00,32.0,32.0,30.19,NNW,337,2.0,10.0,100,0.00,,,0.16,Weather View 32 v70,2013-02-25 03:30:00,
2013-02-24 22:35:00,31.0,31.0,30.19,NNW,337,2.0,10.0,100,0.00,,,0.16,Weather View 32 v70,2013-02-25 03:35:00,
2013-02-24 22:40:00,32.0,32.0,30.19,NNW,337,4.0,10.0,100,0.00,,,0.16,Weather View 32 v70,2013-02-25 03:40:00,
2013-02-24 22:45:00,31.0,31.0,30.19,NNW,337,2.0,10.0,100,0.00,,,0.16,Weather View 32 v70,2013-02-25 03:45:00,
2013-02-24 22:50:00,32.0,32.0,30.19,NNW,337,6.0,10.0,100,0.00,,,0.16,Weather View 32 v70,2013-02-25 03:50:00,
2013-02-24 22:55:00,31.0,31.0,30.19,NNW,337,3.0,10.0,100,0.00,,,0.16,Weather View 32 v70,2013-02-25 03:55:00,
2013-02-24 23:00:00,32.0,32.0,30.19,NNW,337,0.0,10.0,100,0.00,,,0.16,Weather View 32 v70,2013-02-25 04:00:00,
2013-02-24 23:05:00,31.0,31.0,30.19,WNW,292,0.0,10.0,100,0.00,,,0.16,Weather View 32 v70,2013-02-25 04:05:00,
2013-02-24 23:10:00,31.0,31.0,30.20,NW,315,0.0,10.0,100,0.00,,,0.16,Weather View 32 v70,2013-02-25 04:10:00,
2013-02-24 23:15:00,31.0,31.0,30.20,NW,315,4.0,7.0,100,0.00,,,0.16,Weather View 32 v70,2013-02-25 04:15:00,
2013-02-24 23:20:00,31.0,31.0,30.20,NNW,337,1.0,7.0,100,0.00,,,0.16,Weather View 32 v70,2013-02-25 04:20:00,
2013-02-24 23:25:00,31.0,31.0,30.20,NW,315,1.0,7.0,100,0.00,,,0.16,Weather View 32 v70,2013-02-25 04:25:00,
2013-02-24 23:30:00,31.0,31.0,30.20,NNW,337,3.0,7.0,100,0.00,,,0.16,Weather View 32 v70,2013-02-25 04:30:00,
2013-02-24 23:35:00,31.0,31.0,30.20,NNW,337,3.0,7.0,100,0.00,,,0.16,Weather View 32 v70,2013-02-25 04:35:00,
2013-02-24 23:40:00,31.0,31.0,30.20,NNW,337,4.0,7.0,100,0.00,,,0.16,Weather View 32 v70,2013-02-25 04:40:00,
2013-02-24 23:45:00,31.0,31.0,30.20,NNW,337,1.0,7.0,100,0.00,,,0.16,Weather View 32 v70,2013-02-25 04:45:00,
2013-02-24 23:50:00,31.0,31.0,30.21,NNW,337,1.0,7.0,100,0.00,,,0.16,Weather View 32 v70,2013-02-25 04:50:00,
2013-02-24 23:55:00,30.0,30.0,30.21,NNW,337,3.0,7.0,100,0.00,,,0.16,Weather View 32 v70,2013-02-25 04:55:00,